QPF
0.10 0.09 0.06 0.03 0.03 0.02 0.02 0.02 0.02 0.02 0.02 0.02 0.03 0.02 0.02 0.04 0.05 0.04 0.03 0.04 0.05 0.06 0.07 0.07 0.06 0.05 0.05 0.06 0.05 0.04 0.04 0.04 0.03 0.03 0.03 0.02 0.02 0.02 0.02 0.02 0.03 0.03 0.05
0.05 0.05 0.05 0.03 0.02 0.02 0.02 0.02 0.02 0.02 0.02 0.03 0.03 0.03 0.03 0.04 0.06 0.05 0.05 0.04 0.05 0.05 0.06 0.06 0.05 0.05 0.06 0.06 0.05 0.03 0.03 0.03 0.03 0.03 0.02 0.02 0.02 0.01 0.01 0.02 0.02 0.02 0.03
0.02 0.03 0.04 0.03 0.02 0.01 0.02 0.02 0.02 0.02 0.03 0.04 0.04 0.04 0.04 0.05 0.05 0.04 0.05 0.05 0.05 0.06 0.06 0.06 0.05 0.06 0.05 0.04 0.03 0.03 0.02 0.02 0.02 0.02 0.01 0.01 0.01 0.01 0.01 0.01 0.01 0.01 0.02
0.01 0.02 0.02 0.03 0.03 0.02 0.02 0.02 0.02 0.03 0.04 0.04 0.05 0.04 0.03 0.03 0.03 0.04 0.05 0.05 0.06 0.07 0.07 0.07 0.06 0.05 0.05 0.06 0.05 0.04 0.04 0.03 0.02 0.02 0.01 0.01 0.01 0.01 0.02 0.02 0.02 0.02 0.01
0.02 0.01 0.02 0.02 0.02 0.02 0.02 0.03 0.02 0.03 0.03 0.03 0.03 0.03 0.03 0.03 0.03 0.04 0.04 0.04 0.06 0.08 0.09 0.09 0.09 0.08 0.08 0.08 0.08 0.06 0.06 0.04 0.03 0.02 0.02 0.02 0.01 0.01 0.02 0.02 0.02 0.01 0.01
0.05 0.04 0.04 0.02 0.02 0.02 0.02 0.03 0.04 0.02 0.02 0.02 0.02 0.02 0.03 0.03 0.04 0.06 0.04 0.04 0.06 0.08 0.09 0.10 0.09 0.06 0.05 0.05 0.05 0.06 0.06 0.06 0.04 0.03 0.03 0.02 0.02 0.02 0.02 0.02 0.02 0.01 0.02
0.10 0.08 0.07 0.04 0.03 0.03 0.04 0.05 0.04 0.03 0.02 0.02 0.02 0.02 0.03 0.02 0.03 0.05 0.06 0.05 0.05 0.04 0.03 0.03 0.03 0.02 0.03 0.02 0.03 0.04 0.05 0.06 0.06 0.05 0.04 0.03 0.02 0.02 0.03 0.02 0.02 0.01 0.02
0.11 0.09 0.07 0.06 0.05 0.05 0.05 0.05 0.04 0.03 0.02 0.02 0.02 0.02 0.02 0.02 0.04 0.05 0.06 0.05 0.04 0.02 0.02 0.03 0.03 0.02 0.02 0.02 0.02 0.03 0.03 0.04 0.05 0.06 0.07 0.07 0.07 0.06 0.04 0.04 0.03 0.02 0.02
0.13 0.10 0.08 0.07 0.06 0.06 0.06 0.05 0.04 0.03 0.02 0.02 0.01 0.02 0.02 0.03 0.03 0.03 0.04 0.04 0.03 0.03 0.03 0.04 0.03 0.03 0.03 0.04 0.03 0.03 0.02 0.02 0.04 0.05 0.06 0.07 0.08 0.07 0.07 0.06 0.04 0.03 0.03
0.16 0.14 0.08 0.06 0.06 0.07 0.06 0.05 0.04 0.04 0.03 0.03 0.02 0.03 0.02 0.02 0.02 0.02 0.04 0.03 0.04 0.05 0.05 0.04 0.04 0.03 0.03 0.04 0.03 0.03 0.02 0.02 0.03 0.03 0.04 0.05 0.05 0.04 0.05 0.05 0.04 0.04 0.03
0.15 0.14 0.10 0.08 0.07 0.09 0.07 0.05 0.04 0.04 0.04 0.04 0.03 0.03 0.03 0.03 0.03 0.04 0.05 0.05 0.05 0.05 0.05 0.04 0.03 0.04 0.03 0.04 0.04 0.03 0.02 0.02 0.03 0.03 0.03 0.03 0.04 0.03 0.03 0.04 0.05 0.05 0.04
0.14 0.12 0.10 0.09 0.07 0.06 0.06 0.05 0.05 0.04 0.04 0.05 0.06 0.06 0.05 0.04 0.04 0.04 0.05 0.06 0.07 0.06 0.06 0.06 0.07 0.07 0.06 0.05 0.04 0.03 0.03 0.03 0.03 0.02 0.02 0.02 0.03 0.03 0.03 0.05 0.06 0.06 0.06
0.10 0.09 0.09 0.08 0.06 0.05 0.05 0.06 0.07 0.05 0.04 0.04 0.06 0.08 0.06 0.04 0.03 0.04 0.04 0.06 0.08 0.07 0.08 0.10 0.11 0.09 0.07 0.05 0.04 0.04 0.04 0.03 0.03 0.02 0.01 0.02 0.04 0.06 0.07 0.07 0.06 0.06 0.06
0.08 0.06 0.06 0.06 0.05 0.04 0.03 0.03 0.04 0.04 0.04 0.05 0.05 0.06 0.06 0.05 0.04 0.04 0.04 0.04 0.06 0.08 0.10 0.10 0.09 0.09 0.06 0.05 0.04 0.04 0.04 0.03 0.03 0.02 0.02 0.02 0.03 0.05 0.07 0.07 0.07 0.06 0.05
0.07 0.04 0.04 0.04 0.04 0.04 0.04 0.03 0.04 0.05 0.06 0.05 0.05 0.05 0.05 0.04 0.03 0.03 0.02 0.03 0.05 0.06 0.07 0.08 0.08 0.10 0.08 0.06 0.07 0.07 0.05 0.04 0.04 0.03 0.02 0.02 0.02 0.02 0.03 0.03 0.04 0.06 0.07
0.04 0.03 0.02 0.02 0.04 0.06 0.05 0.04 0.04 0.05 0.06 0.05 0.04 0.03 0.02 0.02 0.02 0.01 0.01 0.02 0.03 0.05 0.05 0.05 0.06 0.06 0.07 0.05 0.05 0.06 0.05 0.04 0.04 0.03 0.03 0.02 0.01 0.01 0.01 0.01 0.02 0.02 0.04
0.04 0.03 0.03 0.03 0.02 0.03 0.05 0.04 0.03 0.04 0.05 0.05 0.04 0.03 0.02 0.02 0.02 0.02 0.02 0.01 0.03 0.04 0.03 0.03 0.03 0.04 0.04 0.03 0.03 0.03 0.03 0.04 0.04 0.04 0.03 0.02 0.02 0.01 0.01 0.01 0.02 0.02 0.02
0.04 0.04 0.04 0.03 0.03 0.02 0.02 0.02 0.02 0.02 0.02 0.03 0.03 0.03 0.03 0.03 0.03 0.03 0.03 0.02 0.03 0.04 0.04 0.04 0.04 0.04 0.03 0.03 0.03 0.03 0.02 0.03 0.04 0.04 0.04 0.04 0.03 0.03 0.03 0.02 0.02 0.03 0.03
0.04 0.03 0.03 0.03 0.03 0.03 0.03 0.04 0.04 0.03 0.02 0.02 0.02 0.02 0.03 0.03 0.03 0.03 0.02 0.02 0.02 0.03 0.04 0.04 0.05 0.05 0.04 0.03 0.03 0.03 0.03 0.05 0.05 0.05 0.05 0.05 0.04 0.04 0.04 0.04 0.04 0.04 0.04
0.03 0.03 0.02 0.02 0.02 0.02 0.02 0.03 0.03 0.03 0.02 0.02 0.03 0.03 0.03 0.03 0.02 0.02 0.02 0.02 0.03 0.04 0.04 0.04 0.05 0.06 0.06 0.04 0.03 0.03 0.03 0.05 0.06 0.05 0.04 0.04 0.03 0.03 0.03 0.04 0.04 0.04 0.04
0.03 0.02 0.02 0.02 0.02 0.02 0.02 0.03 0.03 0.03 0.03 0.03 0.04 0.05 0.04 0.03 0.02 0.02 0.03 0.05 0.06 0.06 0.05 0.05 0.05 0.07 0.07 0.06 0.04 0.04 0.03 0.03 0.03 0.03 0.03 0.03 0.03 0.04 0.04 0.03 0.04 0.04 0.04
0.02 0.03 0.02 0.02 0.02 0.02 0.03 0.04 0.04 0.04 0.04 0.04 0.05 0.07 0.05 0.03 0.01 0.01 0.02 0.05 0.07 0.07 0.06 0.05 0.06 0.06 0.06 0.07 0.07 0.06 0.05 0.04 0.03 0.03 0.03 0.03 0.03 0.03 0.03 0.03 0.03 0.03 0.03
0.01 0.01 0.01 0.02 0.02 0.02 0.03 0.07 0.06 0.04 0.05 0.05 0.06 0.07 0.05 0.02 0.01 0.01 0.01 0.02 0.04 0.05 0.05 0.06 0.06 0.05 0.05 0.05 0.06 0.06 0.04 0.03 0.03 0.02 0.02 0.02 0.02 0.02 0.02 0.02 0.02 0.02 0.02
0.01 0.00 0.01 0.01 0.01 0.02 0.03 0.06 0.06 0.05 0.05 0.06 0.06 0.06 0.03 0.02 0.01 0.01 0.01 0.01 0.01 0.02 0.03 0.04 0.04 0.04 0.04 0.03 0.03 0.04 0.03 0.02 0.02 0.01 0.01 0.01 0.01 0.01 0.01 0.01 0.01 0.01 0.01
0.01 0.01 0.00 0.00 0.01 0.01 0.02 0.04 0.05 0.07 0.08 0.07 0.06 0.04 0.03 0.02 0.02 0.01 0.01 0.01 0.01 0.01 0.01 0.02 0.03 0.03 0.02 0.02 0.01 0.02 0.02 0.01 0.01 0.01 0.00 0.01 0.01 0.01 0.01 0.01 0.01 0.01 0.01
0.00 0.01 0.01 0.01 0.01 0.01 0.03 0.04 0.06 0.08 0.06 0.05 0.05 0.04 0.03 0.03 0.02 0.02 0.01 0.01 0.01 0.01 0.01 0.01 0.01 0.01 0.01 0.01 0.02 0.02 0.02 0.02 0.02 0.02 0.01 0.01 0.01 0.00 0.01 0.01 0.01 0.01 0.01
MSLP
1016.58 1016.26 1015.97 1015.68 1015.36 1014.99 1014.60 1014.19 1013.81 1013.47 1013.20 1013.00 1012.86 1012.76 1012.67 1012.57 1012.46 1012.32 1012.18 1012.05 1011.97 1011.93 1011.96 1012.05 1012.17 1012.32 1012.46 1012.57 1012.63 1012.64 1012.60 1012.53 1012.44 1012.34 1012.24 1012.15 1012.05 1011.94 1011.82 1011.67 1011.51 1011.34 1011.16
1016.65 1016.28 1015.94 1015.59 1015.22 1014.83 1014.42 1014.01 1013.63 1013.31 1013.05 1012.86 1012.71 1012.60 1012.49 1012.36 1012.20 1012.02 1011.83 1011.63 1011.48 1011.36 1011.31 1011.31 1011.35 1011.42 1011.50 1011.56 1011.60 1011.61 1011.61 1011.59 1011.56 1011.53 1011.51 1011.48 1011.44 1011.37 1011.28 1011.14 1010.97 1010.77 1010.56
1016.76 1016.36 1015.98 1015.59 1015.19 1014.77 1014.35 1013.95 1013.59 1013.29 1013.05 1012.87 1012.74 1012.62 1012.50 1012.35 1012.16 1011.94 1011.70 1011.46 1011.24 1011.05 1010.92 1010.83 1010.78 1010.75 1010.74 1010.73 1010.71 1010.68 1010.65 1010.63 1010.62 1010.63 1010.65 1010.66 1010.67 1010.65 1010.58 1010.47 1010.31 1010.12 1009.89
1016.92 1016.52 1016.11 1015.70 1015.28 1014.85 1014.44 1014.06 1013.72 1013.45 1013.24 1013.08 1012.96 1012.84 1012.70 1012.53 1012.32 1012.07 1011.80 1011.51 1011.24 1010.99 1010.79 1010.61 1010.47 1010.35 1010.23 1010.11 1009.99 1009.88 1009.78 1009.71 1009.67 1009.66 1009.68 1009.71 1009.74 1009.76 1009.73 1009.66 1009.54 1009.37 1009.17
1017.15 1016.76 1016.36 1015.95 1015.53 1015.11 1014.71 1014.35 1014.05 1013.81 1013.62 1013.48 1013.36 1013.24 1013.08 1012.89 1012.65 1012.36 1012.05 1011.73 1011.41 1011.12 1010.85 1010.61 1010.38 1010.16 1009.93 1009.70 1009.46 1009.24 1009.03 1008.86 1008.74 1008.67 1008.65 1008.67 1008.70 1008.74 1008.75 1008.73 1008.66 1008.55 1008.40
1017.43 1017.07 1016.70 1016.31 1015.90 1015.51 1015.14 1014.82 1014.55 1014.34 1014.18 1014.05 1013.92 1013.77 1013.59 1013.36 1013.07 1012.75 1012.39 1012.03 1011.68 1011.35 1011.03 1010.73 1010.43 1010.12 1009.80 1009.45 1009.09 1008.74 1008.41 1008.12 1007.89 1007.73 1007.63 1007.60 1007.62 1007.65 1007.69 1007.72 1007.71 1007.66 1007.58
1017.76 1017.45 1017.11 1016.75 1016.38 1016.02 1015.70 1015.42 1015.19 1015.01 1014.86 1014.73 1014.59 1014.41 1014.17 1013.89 1013.55 1013.16 1012.76 1012.36 1011.97 1011.60 1011.24 1010.90 1010.55 1010.18 1009.77 1009.33 1008.87 1008.40 1007.95 1007.53 1007.18 1006.91 1006.72 1006.62 1006.58 1006.59 1006.63 1006.68 1006.72 1006.74 1006.72
1018.10 1017.84 1017.54 1017.23 1016.91 1016.60 1016.32 1016.09 1015.90 1015.75 1015.62 1015.48 1015.30 1015.08 1014.79 1014.43 1014.03 1013.58 1013.12 1012.67 1012.24 1011.83 1011.45 1011.07 1010.69 1010.28 1009.83 1009.33 1008.79 1008.23 1007.67 1007.15 1006.68 1006.29 1005.99 1005.79 1005.68 1005.63 1005.64 1005.68 1005.74 1005.79 1005.82
1018.44 1018.22 1017.97 1017.70 1017.43 1017.18 1016.96 1016.77 1016.63 1016.50 1016.38 1016.23 1016.03 1015.75 1015.40 1014.98 1014.50 1013.99 1013.47 1012.96 1012.49 1012.05 1011.65 1011.25 1010.85 1010.42 1009.95 1009.42 1008.84 1008.23 1007.60 1006.99 1006.43 1005.93 1005.53 1005.21 1004.99 1004.85 1004.78 1004.77 1004.79 1004.83 1004.88
1018.75 1018.58 1018.37 1018.14 1017.92 1017.72 1017.55 1017.42 1017.31 1017.22 1017.10 1016.95 1016.72 1016.41 1016.01 1015.53 1014.99 1014.42 1013.85 1013.29 1012.78 1012.31 1011.89 1011.48 1011.07 1010.65 1010.17 1009.64 1009.05 1008.42 1007.76 1007.10 1006.46 1005.87 1005.35 1004.91 1004.56 1004.29 1004.09 1003.97 1003.91 1003.89 1003.90
1019.01 1018.87 1018.70 1018.52 1018.35 1018.20 1018.08 1017.99 1017.92 1017.85 1017.76 1017.60 1017.36 1017.03 1016.60 1016.09 1015.51 1014.90 1014.29 1013.70 1013.16 1012.67 1012.22 1011.81 1011.40 1010.98 1010.52 1010.00 1009.43 1008.81 1008.14 1007.45 1006.77 1006.10 1005.48 1004.91 1004.40 1003.97 1003.62 1003.34 1003.13 1002.99 1002.92
1019.21 1019.10 1018.96 1018.82 1018.69 1018.59 1018.52 1018.47 1018.43 1018.39 1018.31 1018.16 1017.93 1017.59 1017.16 1016.64 1016.06 1015.44 1014.82 1014.22 1013.67 1013.16 1012.71 1012.28 1011.87 1011.45 1011.01 1010.52 1009.97 1009.37 1008.72 1008.03 1007.31 1006.59 1005.87 1005.17 1004.52 1003.91 1003.36 1002.89 1002.50 1002.20 1002.00
1019.33 1019.25 1019.15 1019.05 1018.96 1018.89 1018.85 1018.83 1018.82 1018.79 1018.73 1018.60 1018.38 1018.07 1017.66 1017.17 1016.62 1016.03 1015.43 1014.85 1014.30 1013.80 1013.33 1012.90 1012.49 1012.07 1011.64 1011.16 1010.65 1010.08 1009.45 1008.77 1008.04 1007.28 1006.48 1005.68 1004.87 1004.09 1003.35 1002.67 1002.09 1001.60 1001.24
1019.37 1019.32 1019.25 1019.18 1019.13 1019.09 1019.07 1019.07 1019.07 1019.05 1018.99 1018.88 1018.69 1018.41 1018.06 1017.63 1017.14 1016.61 1016.07 1015.53 1015.02 1014.53 1014.07 1013.63 1013.21 1012.79 1012.35 1011.89 1011.40 1010.85 1010.25 1009.60 1008.87 1008.09 1007.25 1006.36 1005.43 1004.50 1003.58 1002.72 1001.94 1001.27 1000.75
1019.31 1019.30 1019.27 1019.23 1019.21 1019.19 1019.18 1019.18 1019.17 1019.14 1019.09 1018.98 1018.81 1018.58 1018.29 1017.93 1017.53 1017.10 1016.64 1016.18 1015.72 1015.27 1014.83 1014.40 1013.97 1013.54 1013.10 1012.64 1012.16 1011.64 1011.06 1010.43 1009.73 1008.95 1008.09 1007.15 1006.15 1005.12 1004.07 1003.06 1002.13 1001.30 1000.63
1019.15 1019.17 1019.18 1019.19 1019.18 1019.18 1019.16 1019.14 1019.11 1019.06 1018.98 1018.87 1018.72 1018.53 1018.30 1018.04 1017.74 1017.41 1017.06 1016.70 1016.32 1015.93 1015.52 1015.11 1014.68 1014.24 1013.80 1013.34 1012.86 1012.36 1011.81 1011.22 1010.55 1009.80 1008.96 1008.02 1007.00 1005.91 1004.80 1003.71 1002.67 1001.74 1000.97
1018.89 1018.95 1018.99 1019.03 1019.04 1019.04 1019.01 1018.97 1018.90 1018.81 1018.69 1018.56 1018.41 1018.25 1018.08 1017.89 1017.70 1017.49 1017.26 1017.01 1016.73 1016.41 1016.06 1015.68 1015.27 1014.84 1014.39 1013.94 1013.46 1012.98 1012.46 1011.90 1011.28 1010.59 1009.79 1008.90 1007.91 1006.84 1005.73 1004.62 1003.55 1002.58 1001.75
1018.49 1018.59 1018.68 1018.74 1018.77 1018.77 1018.72 1018.64 1018.52 1018.38 1018.22 1018.05 1017.89 1017.74 1017.61 1017.50 1017.40 1017.31 1017.20 1017.07 1016.90 1016.68 1016.41 1016.08 1015.71 1015.30 1014.86 1014.40 1013.94 1013.47 1012.99 1012.47 1011.91 1011.28 1010.56 1009.74 1008.83 1007.84 1006.79 1005.73 1004.70 1003.74 1002.91
1017.96 1018.10 1018.22 1018.31 1018.35 1018.34 1018.28 1018.16 1018.00 1017.80 1017.58 1017.37 1017.19 1017.04 1016.94 1016.89 1016.87 1016.88 1016.89 1016.88 1016.83 1016.71 1016.53 1016.28 1015.96 1015.59 1015.18 1014.74 1014.30 1013.84 1013.39 1012.92 1012.41 1011.86 1011.23 1010.51 1009.71 1008.84 1007.90 1006.94 1006.00 1005.12 1004.34
1017.27 1017.43 1017.58 1017.69 1017.75 1017.75 1017.67 1017.52 1017.31 1017.06 1016.80 1016.55 1016.34 1016.19 1016.10 1016.09 1016.15 1016.24 1016.36 1016.47 1016.53 1016.54 1016.46 1016.30 1016.05 1015.74 1015.37 1014.96 1014.54 1014.11 1013.68 1013.25 1012.80 1012.31 1011.78 1011.18 1010.50 1009.76 1008.97 1008.15 1007.33 1006.57 1005.88
1016.41 1016.59 1016.76 1016.89 1016.96 1016.96 1016.87 1016.71 1016.47 1016.19 1015.89 1015.61 1015.37 1015.21 1015.14 1015.17 1015.28 1015.45 1015.66 1015.88 1016.06 1016.18 1016.21 1016.15 1016.00 1015.75 1015.44 1015.07 1014.68 1014.28 1013.88 1013.48 1013.08 1012.65 1012.20 1011.70 1011.15 1010.55 1009.91 1009.24 1008.57 1007.94 1007.37
1015.38 1015.56 1015.74 1015.88 1015.97 1015.97 1015.88 1015.71 1015.46 1015.17 1014.85 1014.55 1014.31 1014.15 1014.09 1014.14 1014.30 1014.54 1014.83 1015.14 1015.43 1015.66 1015.81 1015.86 1015.80 1015.64 1015.39 1015.09 1014.74 1014.37 1013.99 1013.62 1013.25 1012.88 1012.49 1012.08 1011.64 1011.16 1010.66 1010.14 1009.62 1009.13 1008.68
1014.20 1014.37 1014.54 1014.68 1014.77 1014.78 1014.70 1014.53 1014.29 1013.99 1013.68 1013.38 1013.14 1012.99 1012.95 1013.03 1013.22 1013.52 1013.88 1014.28 1014.66 1015.00 1015.25 1015.41 1015.46 1015.39 1015.23 1014.99 1014.70 1014.37 1014.02 1013.68 1013.34 1013.00 1012.67 1012.32 1011.97 1011.60 1011.22 1010.83 1010.44 1010.07 1009.73
1012.92 1013.06 1013.21 1013.34 1013.42 1013.43 1013.35 1013.19 1012.96 1012.68 1012.37 1012.09 1011.87 1011.73 1011.72 1011.82 1012.05 1012.40 1012.82 1013.28 1013.75 1014.18 1014.54 1014.80 1014.96 1015.00 1014.93 1014.77 1014.55 1014.28 1013.98 1013.67 1013.36 1013.06 1012.76 1012.47 1012.18 1011.90 1011.61 1011.32 1011.04 1010.78 1010.54
1011.62 1011.72 1011.83 1011.92 1011.97 1011.97 1011.89 1011.73 1011.51 1011.24 1010.96 1010.70 1010.50 1010.39 1010.40 1010.53 1010.79 1011.17 1011.63 1012.16 1012.69 1013.21 1013.66 1014.03 1014.29 1014.44 1014.49 1014.43 1014.29 1014.09 1013.85 1013.60 1013.33 1013.07 1012.82 1012.57 1012.34 1012.11 1011.90 1011.69 1011.49 1011.31 1011.14
1010.39 1010.42 1010.47 1010.50 1010.51 1010.47 1010.37 1010.21 1009.99 1009.74 1009.48 1009.24 1009.06 1008.98 1009.00 1009.15 1009.44 1009.84 1010.33 1010.90 1011.49 1012.08 1012.62 1013.08 1013.45 1013.72 1013.88 1013.94 1013.91 1013.81 1013.67 1013.48 1013.28 1013.08 1012.87 1012.68 1012.49 1012.31 1012.15 1011.99 1011.85 1011.72 1011.60
Thickness
5754 5752 5750 5749 5748 5746 5744 5743 5742 5741 5740 5739 5739 5738 5737 5736 5735 5734 5734 5733 5731 5731 5730 5728 5727 5727 5725 5723 5720 5719 5716 5714 5710 5711 5711 5711 5711 5710 5709 5709 5708 5707 5706
5752 5750 5748 5746 5743 5742 5740 5739 5738 5737 5737 5736 5735 5734 5734 5733 5732 5730 5730 5729 5728 5727 5726 5725 5724 5723 5721 5719 5717 5715 5713 5712 5709 5706 5706 5706 5705 5705 5704 5703 5703 5702 5701
5750 5747 5744 5742 5740 5738 5737 5736 5735 5734 5733 5732 5731 5731 5730 5730 5728 5728 5726 5725 5724 5724 5723 5722 5721 5719 5717 5716 5714 5712 5711 5709 5707 5704 5702 5701 5700 5699 5698 5697 5697 5696 5696
5747 5744 5742 5740 5738 5736 5735 5733 5732 5730 5729 5728 5727 5727 5727 5726 5725 5724 5723 5722 5721 5721 5720 5719 5718 5716 5714 5712 5710 5708 5707 5704 5702 5700 5697 5696 5694 5693 5692 5691 5689 5689 5689
5742 5739 5738 5737 5735 5733 5731 5730 5728 5727 5726 5724 5723 5723 5722 5722 5721 5720 5719 5718 5717 5716 5715 5715 5714 5713 5712 5710 5708 5705 5703 5700 5697 5694 5692 5690 5688 5686 5686 5686 5684 5683 5682
5737 5735 5733 5732 5730 5728 5726 5725 5724 5722 5721 5720 5719 5718 5717 5717 5716 5715 5714 5713 5712 5711 5710 5710 5710 5709 5708 5706 5705 5703 5700 5697 5693 5690 5688 5686 5685 5683 5682 5681 5678 5677 5675
5734 5731 5728 5726 5725 5723 5722 5720 5718 5717 5716 5714 5714 5713 5711 5710 5711 5710 5709 5708 5707 5706 5705 5704 5704 5704 5702 5700 5699 5697 5695 5694 5692 5689 5685 5683 5681 5680 5677 5675 5673 5672 5671
5728 5726 5724 5722 5719 5718 5715 5714 5712 5711 5709 5708 5707 5707 5705 5705 5705 5705 5704 5702 5701 5701 5700 5699 5697 5696 5696 5694 5692 5691 5689 5688 5686 5685 5683 5681 5679 5676 5674 5672 5669 5666 5664
5721 5719 5718 5716 5714 5712 5709 5707 5706 5704 5703 5702 5701 5700 5699 5699 5699 5699 5697 5695 5694 5694 5693 5692 5691 5690 5689 5687 5686 5684 5682 5681 5680 5679 5677 5675 5673 5670 5668 5665 5661 5659 5657
5715 5713 5712 5711 5708 5705 5704 5702 5700 5698 5697 5696 5694 5694 5693 5693 5693 5692 5691 5689 5687 5686 5685 5685 5684 5683 5682 5681 5679 5677 5674 5673 5672 5671 5668 5666 5665 5663 5661 5659 5657 5653 5651
5709 5706 5704 5703 5701 5699 5698 5696 5694 5692 5689 5688 5687 5686 5686 5686 5686 5685 5684 5683 5681 5679 5678 5677 5677 5676 5674 5673 5671 5670 5668 5666 5664 5661 5660 5658 5657 5655 5653 5652 5650 5648 5646
5701 5699 5697 5695 5694 5693 5691 5689 5687 5683 5681 5679 5679 5678 5678 5678 5679 5678 5677 5675 5674 5672 5671 5670 5669 5668 5666 5664 5663 5661 5660 5658 5655 5653 5651 5650 5648 5647 5646 5644 5643 5642 5641
5694 5692 5690 5689 5687 5686 5684 5681 5678 5676 5674 5672 5671 5670 5671 5671 5671 5670 5668 5667 5666 5665 5664 5663 5661 5659 5658 5655 5653 5652 5650 5648 5646 5644 5643 5641 5640 5638 5637 5636 5634 5633 5632
5686 5684 5683 5680 5679 5677 5676 5674 5671 5669 5667 5665 5664 5664 5664 5664 5663 5662 5661 5659 5658 5657 5656 5654 5652 5650 5648 5646 5644 5642 5641 5639 5637 5635 5633 5632 5630 5629 5628 5627 5625 5624 5623
5678 5677 5675 5673 5672 5669 5667 5665 5664 5663 5661 5659 5659 5658 5657 5657 5657 5655 5653 5651 5650 5649 5647 5645 5644 5642 5639 5637 5635 5633 5631 5629 5627 5625 5624 5622 5621 5620 5619 5618 5616 5616 5615
5670 5668 5667 5665 5664 5662 5660 5657 5655 5655 5654 5653 5652 5651 5651 5650 5648 5647 5645 5643 5641 5640 5638 5636 5634 5632 5630 5628 5626 5623 5622 5620 5618 5616 5615 5613 5613 5611 5610 5608 5608 5608 5607
5661 5660 5659 5657 5656 5654 5652 5650 5648 5646 5645 5644 5643 5643 5642 5641 5640 5638 5636 5635 5633 5631 5630 5628 5625 5623 5621 5619 5617 5615 5613 5611 5609 5608 5606 5604 5603 5602 5601 5600 5599 5598 5599
5654 5653 5652 5649 5648 5647 5646 5644 5641 5639 5638 5637 5635 5634 5634 5633 5631 5630 5628 5626 5624 5623 5621 5619 5616 5614 5612 5609 5608 5606 5604 5602 5601 5599 5597 5595 5594 5592 5592 5591 5590 5589 5589
5647 5645 5644 5642 5641 5640 5638 5636 5634 5632 5630 5629 5627 5626 5625 5624 5622 5620 5619 5619 5617 5615 5613 5610 5608 5605 5603 5601 5599 5597 5596 5594 5592 5590 5588 5586 5585 5584 5583 5582 5581 5579 5579
5639 5639 5638 5635 5634 5632 5631 5629 5627 5625 5623 5621 5620 5619 5617 5615 5613 5611 5610 5609 5608 5607 5605 5602 5600 5598 5596 5594 5591 5589 5587 5585 5583 5581 5579 5578 5576 5575 5575 5574 5572 5571 5571
5631 5630 5630 5628 5625 5624 5623 5621 5619 5617 5615 5614 5612 5611 5609 5608 5606 5604 5602 5600 5599 5598 5597 5595 5593 5591 5589 5586 5584 5581 5579 5576 5574 5572 5571 5569 5568 5567 5566 5565 5564 5563 5562
5623 5622 5621 5619 5617 5616 5615 5613 5612 5611 5610 5608 5606 5604 5601 5600 5599 5597 5595 5594 5592 5590 5589 5588 5586 5583 5581 5578 5576 5574 5571 5569 5567 5565 5563 5562 5560 5559 5558 5557 5556 5555 5554
5616 5616 5614 5613 5611 5609 5608 5607 5606 5605 5603 5602 5600 5597 5595 5593 5591 5590 5588 5587 5585 5583 5582 5580 5578 5576 5574 5571 5569 5567 5565 5563 5560 5558 5556 5555 5553 5551 5549 5548 5547 5547 5547
5610 5609 5607 5606 5604 5602 5601 5600 5599 5597 5596 5594 5592 5591 5588 5586 5585 5584 5582 5580 5579 5577 5576 5574 5572 5570 5567 5565 5562 5560 5558 5555 5553 5550 5549 5547 5546 5544 5543 5541 5540 5539 5539
5602 5601 5600 5599 5598 5596 5595 5593 5592 5591 5589 5588 5586 5585 5582 5581 5579 5578 5577 5575 5573 5572 5570 5568 5566 5564 5561 5559 5557 5554 5551 5549 5547 5544 5542 5540 5538 5536 5535 5533 5532 5532 5531
5596 5596 5594 5593 5591 5590 5589 5588 5587 5585 5584 5582 5581 5579 5578 5576 5575 5573 5572 5570 5568 5567 5565 5562 5560 5558 5555 5553 5551 5548 5545 5543 5540 5537 5535 5533 5531 5529 5527 5526 5525 5524 5523